logo tempoitalia

Diretta Meteo Beatrice, Stati Uniti (USA)lunedì 31 agosto ore 01:35

Mappa
Sereno 26 °C Sereno 24 Ore: T.min 23 T.max 37
Ponente Ovest Km/h 7.4 Punto di rugiada: 23 °C Umidità: 83% Visibilità: 10 Km
Il sole sorge alle: 06:53 Il sole tramonta alle: 20:00
31 Agosto 2026 01:35 tempo osservato: Sereno Sereno 26 83 1010 vento: Nord O 7.4
31 Agosto 2026 01:15 tempo osservato: Sereno Sereno 26 83 1010 vento: Nord S/SO 11.1
31 Agosto 2026 00:55 tempo osservato: Sereno Sereno 25 88 1010 vento: Nord S 11.1
31 Agosto 2026 00:35 tempo osservato: Sereno Sereno 25 88 1010 vento: Nord N 0
31 Agosto 2026 00:15 tempo osservato: Sereno Sereno 26 83 1010 vento: Nord N 0
30 Agosto 2026 23:55 tempo osservato: Sereno Sereno 25 88 1010 vento: Nord N 0
30 Agosto 2026 23:35 tempo osservato: Sereno Sereno 26 83 1009 vento: Nord N 0
30 Agosto 2026 23:15 tempo osservato: Sereno Sereno 26 88 1009 vento: Nord N 0
30 Agosto 2026 22:55 tempo osservato: Sereno Sereno 26 83 1009 vento: Nord N 0
30 Agosto 2026 22:35 tempo osservato: Sereno Sereno 26 88 1010 vento: Nord N 5.5
30 Agosto 2026 22:15 tempo osservato: Sereno Sereno 26 88 1010 vento: Nord N 0
30 Agosto 2026 21:55 tempo osservato: Sereno Sereno 26 88 1010 vento: Nord N 0
30 Agosto 2026 21:35 tempo osservato: Sereno Sereno 26 88 1009 vento: Nord N 5.5
30 Agosto 2026 21:15 tempo osservato: Sereno Sereno 26 83 1009 vento: Nord N 0
30 Agosto 2026 20:55 tempo osservato: Sereno Sereno 28 78 1009 vento: Nord N 0
30 Agosto 2026 20:35 tempo osservato: Sereno Sereno 28 78 1009 vento: Nord N/NE 9.3
30 Agosto 2026 20:15 tempo osservato: Sereno Sereno 29 70 1009 vento: Nord NE 9.3
30 Agosto 2026 19:55 tempo osservato: Sereno Sereno 29 74 1008 vento: Nord N 13
30 Agosto 2026 19:35 tempo osservato: Sereno Sereno 34 52 1008 vento: Nord N 9.3
30 Agosto 2026 19:15 tempo osservato: Sereno Sereno 34 52 1008 vento: Nord N 0
30 Agosto 2026 18:55 tempo osservato: Sereno Sereno 35 49 1008 vento: Nord N 5.5
30 Agosto 2026 18:35 tempo osservato: Sereno Sereno 35 49 1008 vento: Nord N 5.5
30 Agosto 2026 18:15 tempo osservato: Sereno Sereno 36 44 1008 vento: Nord N 5.5
30 Agosto 2026 17:55 tempo osservato: Sereno Sereno 36 41 1008 vento: Nord S 7.4
30 Agosto 2026 17:35 tempo osservato: Sereno Sereno 37 39 1008 vento: Nord S/SO 9.3
30 Agosto 2026 17:15 tempo osservato: Sereno Sereno 35 44 1008 vento: Nord SO 9.3
30 Agosto 2026 16:55 tempo osservato: Sereno Sereno 36 41 1008 vento: Nord SO 13
30 Agosto 2026 16:35 tempo osservato: Sereno Sereno 35 41 1008 vento: Nord SO 13
30 Agosto 2026 16:15 tempo osservato: Sereno Sereno 36 39 1008 vento: Nord S 16.7
30 Agosto 2026 15:55 tempo osservato: Sereno Sereno 36 39 1008 vento: Nord S 18.5
30 Agosto 2026 15:35 tempo osservato: Sereno Sereno 36 36 1009 vento: Nord SO 20.3
30 Agosto 2026 15:15 tempo osservato: Sereno Sereno 36 36 1009 vento: Nord SO 16.7
30 Agosto 2026 14:55 tempo osservato: Sereno Sereno 35 39 1009 vento: Nord SO 24
30 Agosto 2026 14:35 tempo osservato: Sereno Sereno 35 39 1009 vento: Nord S/SO 24
30 Agosto 2026 14:15 tempo osservato: Sereno Sereno 34 41 1010 vento: Nord S/SO 22.2
30 Agosto 2026 13:55 tempo osservato: Sereno Sereno 34 41 1010 vento: Nord SO 18.5
30 Agosto 2026 13:35 tempo osservato: Sereno Sereno 34 41 1010 vento: Nord SO 29.6
30 Agosto 2026 13:15 tempo osservato: Sereno Sereno 33 43 1010 vento: Nord S/SO 22.2
30 Agosto 2026 12:55 tempo osservato: Sereno Sereno 33 41 1010 vento: Nord S/SO 24
30 Agosto 2026 12:35 tempo osservato: Sereno Sereno 33 43 1010 vento: Nord SO 20.3
30 Agosto 2026 12:15 tempo osservato: Sereno Sereno 33 43 1010 vento: Nord SO 20.3
30 Agosto 2026 11:55 tempo osservato: Sereno Sereno 32 46 1010 vento: Nord S/SO 14.8
30 Agosto 2026 11:35 tempo osservato: Sereno Sereno 30 48 1010 vento: Nord S/SO 16.7
30 Agosto 2026 11:15 tempo osservato: Sereno Sereno 31 45 1010 vento: Nord SO 22.2
30 Agosto 2026 10:55 tempo osservato: Sereno Sereno 31 45 1010 vento: Nord SO 29.6
30 Agosto 2026 10:35 tempo osservato: Sereno Sereno 31 48 1010 vento: Nord S/SO 16.7
30 Agosto 2026 10:15 tempo osservato: Sereno Sereno 29 51 1010 vento: Nord S/SO 14.8
30 Agosto 2026 09:55 tempo osservato: Sereno Sereno 28 54 1010 vento: Nord SO 11.1
30 Agosto 2026 09:35 tempo osservato: Sereno Sereno 27 57 1009 vento: Nord S/SO 11.1
30 Agosto 2026 09:15 tempo osservato: Sereno Sereno 27 57 1009 vento: Nord S/SO 9.3
30 Agosto 2026 08:55 tempo osservato: Sereno Sereno 26 61 1009 vento: Nord S 7.4
30 Agosto 2026 08:35 tempo osservato: Sereno Sereno 26 57 1009 vento: Nord S 9.3
30 Agosto 2026 08:15 tempo osservato: Sereno Sereno 25 61 1009 vento: Nord S 11.1
30 Agosto 2026 07:55 tempo osservato: Sereno Sereno 25 61 1010 vento: Nord S 9.3
30 Agosto 2026 07:35 tempo osservato: Sereno Sereno 25 61 1010 vento: Nord S 9.3
30 Agosto 2026 07:15 tempo osservato: Sereno Sereno 25 61 1010 vento: Nord S/SE 9.3
30 Agosto 2026 06:55 tempo osservato: Sereno Sereno 23 73 1010 vento: Nord N 5.5
30 Agosto 2026 06:35 tempo osservato: Sereno Sereno 23 73 1010 vento: Nord N 0
30 Agosto 2026 06:15 tempo osservato: Sereno Sereno 23 73 1010 vento: Nord N 0
30 Agosto 2026 05:55 tempo osservato: Sereno Sereno 24 69 1010 vento: Nord O/NO 7.4
30 Agosto 2026 05:35 tempo osservato: Nuvoloso Nuvoloso 26 57 1010 vento: Nord O 7.4
30 Agosto 2026 05:15 tempo osservato: Nuvoloso Nuvoloso 27 54 1010 vento: Nord S 11.1
30 Agosto 2026 04:55 tempo osservato: Sereno Sereno 27 54 1010 vento: Nord S 16.7
30 Agosto 2026 04:35 tempo osservato: Sereno Sereno 27 54 1010 vento: Nord S 14.8
30 Agosto 2026 04:15 tempo osservato: Sereno Sereno 27 54 1010 vento: Nord S 14.8
30 Agosto 2026 03:55 tempo osservato: Sereno Sereno 27 54 1010 vento: Nord S 16.7
30 Agosto 2026 03:35 tempo osservato: Sereno Sereno 27 54 1010 vento: Nord S 16.7
30 Agosto 2026 03:15 tempo osservato: Sereno Sereno 27 54 1010 vento: Nord S 16.7
30 Agosto 2026 02:55 tempo osservato: Sereno Sereno 27 54 1010 vento: Nord S 18.5
30 Agosto 2026 02:35 tempo osservato: Sereno Sereno 27 54 1010 vento: Nord S 20.3
30 Agosto 2026 02:15 tempo osservato: Sereno Sereno 27 54 1010 vento: Nord S 18.5
30 Agosto 2026 01:55 tempo osservato: Sereno Sereno 27 54 1010 vento: Nord S 16.7
30 Agosto 2026 01:35 tempo osservato: Sereno Sereno 27 54 1010 vento: Nord S 14.8